period_start,C,m1,H,J0,J1,J2,J3,J4,J5,JA,JB,JC,JD,JJ,JK,JN,#
2013-09-06 00:00:42,0.00,1.08,0.00,23.36,28.22,30.57,5.91,30.00,1006.55,2046.97,3039.96,3030.11,3279.01,349.61,320.01,20.62,0000 0000 0000 0000 000000
2013-09-06 00:01:42,0.00,1.08,0.00,23.36,28.22,30.59,6.05,30.13,1006.51,2046.99,3039.96,3030.07,3279.01,350.36,320.63,20.63,0000 0000 0000 0000 000000
2013-09-06 00:02:42,0.02,1.08,0.00,23.39,28.22,30.58,5.90,30.00,1006.47,2046.99,3039.95,3030.04,3279.01,349.48,319.84,20.63,0000 0000 0000 0000 000000
2013-09-06 00:03:43,0.01,1.08,0.00,23.38,28.22,30.53,5.92,29.79,1006.46,2046.97,3039.91,3030.02,3279.00,349.93,320.22,20.64,0000 0000 0000 0000 000000
2013-09-06 00:04:43,0.00,1.08,0.00,23.37,28.22,30.55,5.96,29.79,1006.45,2046.99,3039.95,3030.01,3279.01,350.08,319.70,20.64,0000 0000 0000 0000 000000
2013-09-06 00:05:43,0.00,1.08,0.00,23.37,28.22,30.56,5.80,29.92,1006.45,2046.99,3039.98,3030.05,3279.00,348.93,319.34,20.65,0000 0000 0000 0000 000000
2013-09-06 00:06:44,-0.01,1.08,0.00,23.36,28.22,30.58,6.09,30.29,1006.42,2046.99,3039.99,3030.10,3279.01,349.54,320.10,20.66,0000 0000 0000 0000 000000
2013-09-06 00:07:44,-0.01,1.08,0.00,23.40,28.22,30.57,5.94,29.83,1006.40,2046.99,3039.99,3030.13,3279.01,349.64,319.99,20.66,0000 0000 0000 0000 000000
2013-09-06 00:08:44,-0.00,1.08,0.00,23.45,28.22,30.60,6.02,30.29,1006.42,2046.99,3039.97,3030.08,3279.01,351.04,321.19,20.67,0000 0000 0000 0000 000000
2013-09-06 00:09:45,0.01,1.08,0.00,23.48,28.22,30.57,5.80,30.21,1006.37,2046.99,3039.93,3030.05,3279.00,349.02,319.31,20.67,0000 0000 0000 0000 000000
2013-09-06 00:10:45,0.00,1.08,0.00,23.49,28.22,30.57,5.99,29.83,1006.39,2046.98,3039.94,3030.05,3279.00,350.17,320.32,20.68,0000 0000 0000 0000 000000
2013-09-06 00:11:45,-0.02,1.08,0.00,23.51,28.22,30.55,6.04,29.88,1006.39,2046.98,3039.97,3030.06,3279.00,350.64,320.75,20.68,0000 0000 0000 0000 000000
2013-09-06 00:12:45,-0.00,1.08,0.00,23.52,28.22,30.52,5.97,30.33,1006.37,2046.99,3039.97,3030.05,3279.00,349.63,319.81,20.69,0000 0000 0000 0000 000000
2013-09-06 00:13:45,0.01,1.08,0.00,23.52,28.22,30.54,5.92,29.88,1006.37,2046.99,3039.95,3030.09,3279.01,350.07,320.21,20.70,0000 0000 0000 0000 000000
2013-09-06 00:14:46,-0.01,1.08,0.00,23.52,28.22,30.56,6.08,29.96,1006.38,2046.99,3039.95,3030.08,3279.01,350.71,320.64,20.70,0000 0000 0000 0000 000000
2013-09-06 00:15:46,-0.00,1.08,0.00,23.53,28.22,30.54,5.81,30.04,1006.37,2046.99,3039.97,3030.05,3279.00,349.40,319.29,20.71,0000 0000 0000 0000 000000
2013-09-06 00:16:46,0.00,1.08,0.00,23.55,28.22,30.52,6.03,29.83,1006.38,2046.98,3039.97,3030.03,3279.01,350.72,320.82,20.71,0000 0000 0000 0000 000000
2013-09-06 00:17:46,0.00,1.08,0.00,23.56,28.22,30.52,5.88,30.00,1006.37,2046.98,3039.85,3030.02,3279.00,349.77,319.89,20.72,0000 0000 0000 0000 000000
2013-09-06 00:18:46,0.03,1.08,0.00,23.57,28.22,30.53,5.90,29.88,1006.36,2046.98,3039.62,3030.00,3279.00,349.21,319.69,20.73,0000 0000 0000 0000 000000
2013-09-06 00:19:47,0.02,1.08,0.00,23.57,28.22,30.51,6.01,30.25,1006.36,2046.99,3039.67,3030.02,3279.00,349.94,320.03,20.73,0000 0000 0000 0000 000000
2013-09-06 00:20:47,0.00,1.08,0.00,23.59,28.22,30.52,5.89,30.04,1006.36,2046.99,3039.60,3030.01,3279.00,349.89,319.52,20.74,0000 0000 0000 0000 000000
2013-09-06 00:21:47,0.01,1.08,0.00,23.58,28.22,30.53,5.97,30.46,1006.36,2046.99,3039.55,3030.01,3279.00,350.80,320.38,20.74,0000 0000 0000 0000 000000
2013-09-06 00:22:48,0.00,1.08,0.00,23.58,28.22,30.49,5.78,29.75,1006.36,2046.99,3039.47,3030.01,3279.00,349.16,319.49,20.75,0000 0000 0000 0000 000000
2013-09-06 00:23:48,0.00,1.08,0.00,23.59,28.22,30.51,6.02,30.25,1006.36,2046.99,3039.66,3030.01,3279.00,350.47,320.34,20.76,0000 0000 0000 0000 000000
2013-09-06 00:24:48,-0.02,1.08,0.00,23.58,28.22,30.50,6.01,30.00,1006.36,2046.98,3039.85,3030.00,3279.00,349.58,319.69,20.76,0000 0000 0000 0000 000000
2013-09-06 00:25:48,-0.02,1.08,0.00,23.59,28.22,30.49,5.96,30.08,1006.36,2046.99,3039.78,3030.01,3279.00,349.99,320.02,20.77,0000 0000 0000 0000 000000
2013-09-06 00:26:48,0.01,1.08,0.00,23.60,28.22,30.48,5.99,29.83,1006.37,2046.98,3039.84,3030.01,3279.00,350.24,320.59,20.77,0000 0000 0000 0000 000000
2013-09-06 00:27:48,-0.02,1.08,0.00,23.61,28.22,30.48,5.93,30.25,1006.36,2046.99,3039.86,3030.01,3279.00,350.38,320.49,20.78,0000 0000 0000 0000 000000
2013-09-06 00:28:49,0.00,1.08,0.00,23.62,28.22,30.50,5.84,30.17,1006.36,2046.99,3039.69,3030.03,3279.00,350.00,320.08,20.78,0000 0000 0000 0000 000000
2013-09-06 00:29:49,0.01,1.08,0.00,23.62,28.22,30.51,5.95,29.83,1006.36,2046.99,3039.85,3030.01,3279.00,349.76,319.33,20.79,0000 0000 0000 0000 000000
2013-09-06 00:30:49,-0.01,1.08,0.00,23.62,28.22,30.52,6.05,29.79,1006.36,2046.99,3039.94,3030.02,3279.00,350.74,320.88,20.80,0000 0000 0000 0000 000000
2013-09-06 00:31:49,-0.01,1.08,0.00,23.63,28.22,30.51,5.67,29.96,1006.36,2046.99,3039.97,3030.01,3279.00,348.76,318.88,20.80,0000 0000 0000 0000 000000
2013-09-06 00:32:49,-0.00,1.08,0.00,23.63,28.22,30.45,6.07,29.96,1006.36,2046.99,3039.96,3030.01,3279.00,350.76,320.71,20.81,0000 0000 0000 0000 000000
2013-09-06 00:33:49,0.00,1.08,0.00,23.63,28.22,30.47,6.03,30.13,1006.36,2046.97,3039.91,3030.01,3279.00,349.72,319.76,20.81,0000 0000 0000 0000 000000
2013-09-06 00:34:49,-0.01,1.08,0.00,23.64,28.22,30.49,5.94,29.96,1006.36,2046.97,3039.82,3030.00,3279.00,350.41,320.38,20.82,0000 0000 0000 0000 000000
2013-09-06 00:35:50,0.01,1.08,0.00,23.64,28.22,30.50,5.85,29.88,1006.36,2046.98,3039.90,3030.00,3279.00,348.88,319.24,20.83,0000 0000 0000 0000 000000
2013-09-06 00:36:50,0.00,1.08,0.00,23.63,28.22,30.46,5.84,29.96,1006.36,2046.96,3039.93,3030.01,3279.00,349.86,319.89,20.83,0000 0000 0000 0000 000000
2013-09-06 00:37:50,-0.02,1.08,0.00,23.64,28.22,30.50,5.93,29.83,1006.36,2046.96,3039.90,3030.04,3279.00,350.07,320.07,20.84,0000 0000 0000 0000 000000
2013-09-06 00:38:50,-0.00,1.08,0.00,23.65,28.22,30.48,5.83,29.88,1006.36,2046.97,3039.90,3030.02,3279.00,349.86,319.49,20.84,0000 0000 0000 0000 000000
2013-09-06 00:39:51,0.02,1.08,0.00,23.67,28.22,30.42,5.98,29.92,1006.32,2046.98,3039.92,3030.04,3279.00,350.55,320.62,20.85,0000 0000 0000 0000 000000
2013-09-06 00:40:51,0.00,1.08,0.00,23.67,28.22,30.41,5.94,30.50,1006.33,2046.99,3039.94,3030.05,3279.00,349.77,319.81,20.85,0000 0000 0000 0000 000000
2013-09-06 00:41:51,0.00,1.08,0.00,23.67,28.22,30.41,5.93,30.33,1006.31,2046.98,3039.89,3030.02,3279.00,349.85,319.83,20.86,0000 0000 0000 0000 000000
2013-09-06 00:42:51,0.00,1.08,0.00,23.66,28.22,30.40,6.00,30.38,1006.32,2046.95,3039.86,3030.00,3279.00,350.25,320.18,20.87,0000 0000 0000 0000 000000
2013-09-06 00:43:52,0.00,1.08,0.00,23.68,28.22,30.41,5.93,30.46,1006.33,2046.96,3039.64,3030.00,3279.00,349.61,319.46,20.87,0000 0000 0000 0000 000000
2013-09-06 00:44:52,0.03,1.08,0.00,23.69,28.23,30.39,5.99,29.96,1006.32,2046.97,3039.65,3030.00,3279.00,349.82,319.79,20.88,0000 0000 0000 0000 000000
2013-09-06 00:45:52,-0.02,1.08,0.00,23.70,28.23,30.41,5.80,29.79,1006.34,2046.97,3039.83,3030.00,3279.00,349.57,319.55,20.88,0000 0000 0000 0000 000000
2013-09-06 00:46:52,-0.01,1.08,0.00,23.69,28.23,30.42,5.96,30.00,1006.33,2046.97,3039.78,3030.01,3279.00,350.25,320.22,20.89,0000 0000 0000 0000 000000
2013-09-06 00:47:52,0.02,1.08,0.00,23.70,28.24,30.42,5.93,30.00,1006.29,2046.96,3039.45,3030.00,3279.00,350.29,320.18,20.90,0000 0000 0000 0000 000000
2013-09-06 00:48:53,0.05,1.08,0.00,23.72,28.24,30.40,6.00,30.13,1006.28,2046.96,3039.30,3030.00,3278.99,350.65,320.29,20.90,0000 0000 0000 0000 000000
2013-09-06 00:49:53,0.02,1.08,0.00,23.72,28.24,30.38,5.87,30.00,1006.26,2046.98,3039.23,3030.00,3278.98,349.96,319.94,20.91,0000 0000 0000 0000 000000
2013-09-06 00:50:53,0.01,1.08,0.00,23.72,28.25,30.40,5.97,29.88,1006.26,2046.98,3039.14,3030.00,3278.98,349.31,319.01,20.91,0000 0000 0000 0000 000000
2013-09-06 00:51:53,0.01,1.08,0.00,23.72,28.25,30.40,6.02,29.88,1006.21,2046.96,3039.05,3030.00,3278.95,349.73,319.41,20.92,0000 0000 0000 0000 000000
2013-09-06 00:52:54,-0.01,1.08,0.00,23.71,28.25,30.41,5.83,29.88,1006.12,2046.96,3039.04,3030.00,3278.95,349.69,319.57,20.93,0000 0000 0000 0000 000000
2013-09-06 00:53:54,-0.00,1.08,0.00,23.72,28.25,30.42,5.82,29.83,1006.07,2046.95,3039.06,3030.00,3278.93,349.34,319.22,20.93,0000 0000 0000 0000 000000
2013-09-06 00:54:54,0.00,1.08,0.00,23.71,28.25,30.42,5.79,29.92,1006.06,2046.94,3039.07,3030.00,3278.91,349.35,319.24,20.94,0000 0000 0000 0000 000000
2013-09-06 00:55:55,0.00,1.08,0.00,23.72,28.25,30.41,5.88,29.83,1006.09,2046.96,3039.05,3030.00,3278.86,349.48,319.20,20.94,0000 0000 0000 0000 000000
2013-09-06 00:56:55,0.01,1.08,0.00,23.72,28.25,30.40,5.89,30.67,1006.06,2046.96,3039.03,3030.00,3278.85,350.30,320.10,20.95,0000 0000 0000 0000 000000
2013-09-06 00:57:55,0.01,1.08,0.00,23.72,28.25,30.42,5.96,30.04,1005.96,2046.96,3039.02,3030.00,3278.89,349.44,319.28,20.95,0000 0000 0000 0000 000000
2013-09-06 00:58:55,-0.01,1.08,0.00,23.73,28.25,30.41,5.78,30.04,1005.94,2046.96,3039.01,3029.99,3278.88,349.21,319.06,20.96,0000 0000 0000 0000 000000
2013-09-06 00:59:55,0.01,1.08,0.00,23.73,28.25,30.43,5.97,29.96,1005.93,2046.98,3039.00,3029.99,3278.76,350.81,320.61,20.97,0000 0000 0000 0000 000000
2013-09-06 01:00:56,0.01,1.08,0.00,23.74,28.25,30.41,5.85,29.75,1005.97,2046.95,3039.00,3029.99,3278.54,349.40,319.54,20.97,0000 0000 0000 0000 000000
2013-09-06 01:01:56,0.01,1.08,0.00,23.77,28.25,30.40,5.94,29.88,1005.94,2046.95,3038.99,3029.99,3278.47,349.89,319.64,20.98,0000 0000 0000 0000 000000
2013-09-06 01:02:56,0.00,1.08,0.00,23.76,28.25,30.40,5.86,29.88,1005.91,2046.97,3038.99,3029.99,3278.51,350.04,319.73,20.98,0000 0000 0000 0000 000000
2013-09-06 01:03:57,0.02,1.08,0.00,23.76,28.25,30.40,6.05,30.25,1005.91,2046.98,3038.99,3029.99,3278.64,350.28,319.94,20.99,0000 0000 0000 0000 000000
2013-09-06 01:04:57,-0.03,1.08,0.00,23.78,28.25,30.41,6.08,29.83,1005.92,2046.97,3038.97,3029.99,3278.50,350.38,320.07,21.00,0000 0000 0000 0000 000000
2013-09-06 01:05:57,0.03,1.08,0.00,23.78,28.25,30.40,5.86,30.08,1005.91,2046.98,3038.95,3029.99,3278.26,349.87,319.68,21.00,0000 0000 0000 0000 000000
2013-09-06 01:06:57,0.04,1.08,0.00,23.79,28.26,30.40,5.98,29.83,1005.93,2046.97,3038.96,3029.97,3278.16,350.15,320.00,21.01,0000 0000 0000 0000 000000
2013-09-06 01:07:58,0.00,1.08,0.00,23.79,28.27,30.41,5.95,29.96,1005.90,2046.95,3038.96,3029.95,3278.20,350.64,320.20,21.01,0000 0000 0000 0000 000000
2013-09-06 01:08:58,-0.03,1.08,0.00,23.79,28.27,30.41,6.02,29.67,1005.92,2046.95,3038.97,3029.97,3278.17,350.68,320.23,21.02,0000 0000 0000 0000 000000
2013-09-06 01:09:58,0.00,1.08,0.00,23.80,28.27,30.42,5.88,29.67,1005.91,2046.95,3038.96,3029.97,3278.12,350.40,320.19,21.02,0000 0000 0000 0000 000000
2013-09-06 01:10:58,0.02,1.08,0.00,23.80,28.27,30.41,6.02,29.88,1005.89,2046.96,3038.94,3029.97,3278.12,350.31,319.54,21.03,0000 0000 0000 0000 000000
2013-09-06 01:11:58,0.00,1.08,0.00,23.81,28.27,30.44,5.94,29.79,1005.90,2046.95,3038.94,3029.98,3278.11,350.49,320.12,21.04,0000 0000 0000 0000 000000
2013-09-06 01:12:59,-0.01,1.08,0.00,23.82,28.27,30.43,5.90,29.63,1005.89,2046.93,3038.90,3029.96,3278.06,350.22,319.87,21.04,0000 0000 0000 0000 000000
2013-09-06 01:13:59,-0.02,1.08,0.00,23.82,28.27,30.43,5.92,29.96,1005.89,2046.91,3038.81,3029.94,3278.06,350.98,320.31,21.05,0000 0000 0000 0000 000000
2013-09-06 01:14:59,0.04,1.08,0.00,23.81,28.27,30.44,6.02,29.96,1005.90,2046.94,3038.66,3029.90,3278.03,349.83,319.52,21.05,0000 0000 0000 0000 000000
2013-09-06 01:15:59,0.05,1.09,0.00,23.82,28.27,30.46,5.92,29.83,1005.88,2046.92,3038.68,3029.82,3278.01,350.24,319.88,21.06,0000 0000 0000 0000 000000
2013-09-06 01:16:59,-0.02,1.09,0.00,23.82,28.27,30.45,5.95,30.21,1005.87,2046.88,3038.53,3029.76,3278.00,350.12,319.76,21.07,0000 0000 0000 0000 000000
2013-09-06 01:18:00,0.04,1.09,0.00,23.82,28.27,30.44,6.05,30.29,1005.87,2046.94,3038.22,3029.66,3278.01,349.93,319.98,21.07,0000 0000 0000 0000 000000
2013-09-06 01:19:00,0.11,1.09,0.00,23.82,28.28,30.45,5.92,30.71,1005.87,2046.94,3038.21,3029.71,3278.04,349.60,319.29,21.08,0000 0000 0000 0000 000000
2013-09-06 01:20:00,0.00,1.09,0.00,23.82,28.28,30.44,5.86,30.04,1005.87,2046.94,3038.20,3029.65,3278.01,350.41,320.03,21.08,0000 0000 0000 0000 000000
2013-09-06 01:21:00,0.01,1.09,0.00,23.83,28.29,30.44,5.92,29.96,1005.87,2046.95,3038.21,3029.73,3278.02,350.27,319.89,21.09,0000 0000 0000 0000 000000
2013-09-06 01:22:00,0.00,1.09,0.00,23.85,28.30,30.46,5.95,30.00,1005.87,2046.96,3038.34,3029.87,3278.05,349.55,319.16,21.09,0000 0000 0000 0000 000000
2013-09-06 01:23:01,-0.06,1.09,0.00,23.85,28.30,30.44,5.98,30.00,1005.87,2046.97,3038.37,3029.87,3278.03,350.83,319.99,21.10,0000 0000 0000 0000 000000
2013-09-06 01:24:01,0.00,1.09,0.00,23.85,28.30,30.44,5.73,29.88,1005.87,2046.96,3038.41,3029.84,3278.02,350.13,319.97,21.11,0000 0000 0000 0000 000000
2013-09-06 01:25:01,0.01,1.09,0.00,23.87,28.30,30.45,5.94,29.96,1005.86,2046.96,3038.56,3029.80,3278.01,351.18,320.68,21.11,0000 0000 0000 0000 000000
2013-09-06 01:26:01,-0.01,1.09,0.00,23.88,28.30,30.47,6.07,30.04,1005.87,2046.96,3038.36,3029.66,3278.01,350.93,320.45,21.12,0000 0000 0000 0000 000000
2013-09-06 01:27:01,0.09,1.09,0.00,23.87,28.30,30.45,5.93,29.88,1005.87,2046.97,3038.44,3029.70,3278.03,350.39,320.14,21.12,0000 0000 0000 0000 000000
2013-09-06 01:28:02,-0.04,1.09,0.00,23.88,28.30,30.46,5.98,29.75,1005.86,2046.96,3038.42,3029.62,3278.02,350.23,319.80,21.13,0000 0000 0000 0000 000000
2013-09-06 01:29:02,0.03,1.09,0.00,23.87,28.30,30.46,5.84,29.96,1005.84,2046.93,3038.61,3029.67,3278.00,349.93,319.53,21.14,0000 0000 0000 0000 000000
2013-09-06 01:30:02,-0.12,1.09,0.00,23.88,28.30,30.45,5.83,29.79,1005.85,2046.93,3038.37,3029.47,3278.00,349.67,319.29,21.14,0000 0000 0000 0000 000000
2013-09-06 01:31:02,0.12,1.09,0.00,23.89,28.31,30.46,5.82,29.83,1005.81,2046.91,3038.24,3029.42,3278.00,349.28,318.90,21.15,0000 0000 0000 0000 000000
2013-09-06 01:32:03,-0.01,1.09,0.00,23.89,28.32,30.47,5.92,29.88,1005.78,2046.91,3038.14,3029.42,3278.00,350.27,319.51,21.15,0000 0000 0000 0000 000000
2013-09-06 01:33:03,0.05,1.09,0.00,23.91,28.32,30.47,5.90,29.83,1005.81,2046.92,3038.06,3029.40,3278.00,350.32,319.84,21.16,0000 0000 0000 0000 000000
2013-09-06 01:34:03,0.00,1.09,0.00,23.90,28.32,30.47,6.05,29.71,1005.73,2046.91,3038.03,3029.32,3278.00,351.07,320.56,21.16,0000 0000 0000 0000 000000
2013-09-06 01:35:03,0.00,1.09,0.00,23.91,28.32,30.47,5.85,29.83,1005.73,2046.92,3038.02,3029.18,3278.00,349.87,319.41,21.17,0000 0000 0000 0000 000000
2013-09-06 01:36:03,0.05,1.09,0.00,23.92,28.32,30.48,6.01,30.08,1005.66,2046.91,3038.03,3029.10,3278.00,350.77,320.19,21.18,0000 0000 0000 0000 000000
2013-09-06 01:37:04,0.01,1.09,0.00,23.93,28.32,30.48,6.01,30.33,1005.68,2046.90,3038.01,3029.09,3278.00,350.59,319.79,21.18,0000 0000 0000 0000 000000
2013-09-06 01:38:04,0.00,1.09,0.00,23.93,28.32,30.49,5.96,29.83,1005.69,2046.85,3038.00,3029.07,3278.00,349.54,319.07,21.19,0000 0000 0000 0000 000000
2013-09-06 01:39:04,-0.05,1.09,0.00,23.91,28.32,30.48,5.88,29.75,1005.67,2046.81,3038.00,3029.06,3278.00,349.66,319.19,21.19,0000 0000 0000 0000 000000
2013-09-06 01:40:04,-0.02,1.09,0.00,23.88,28.32,30.50,5.92,29.67,1005.60,2046.73,3038.00,3029.03,3277.99,350.49,319.96,21.20,0000 0000 0000 0000 000000
2013-09-06 01:41:05,-0.03,1.09,0.00,23.85,28.33,30.49,5.98,30.50,1005.57,2046.63,3038.00,3029.02,3277.99,349.13,318.72,21.21,0000 0000 0000 0000 000000
2013-09-06 01:42:05,-0.11,1.09,0.00,23.85,28.34,30.47,5.88,30.17,1005.57,2046.57,3037.99,3029.01,3277.96,350.09,319.61,21.21,0000 0000 0000 0000 000000
2013-09-06 01:43:05,-0.01,1.09,0.00,23.84,28.34,30.49,5.98,30.25,1005.54,2046.48,3037.99,3029.00,3277.96,350.47,319.96,21.22,0000 0000 0000 0000 000000
2013-09-06 01:44:05,-0.07,1.08,0.00,23.84,28.35,30.49,5.85,30.00,1005.46,2046.51,3037.99,3029.00,3277.98,349.84,319.01,21.22,0000 0000 0000 0000 000000
2013-09-06 01:45:06,0.02,1.08,0.00,23.86,28.35,30.49,6.07,30.08,1005.48,2046.60,3037.99,3029.01,3277.98,351.30,320.48,21.23,0000 0000 0000 0000 000000
2013-09-06 01:46:06,0.07,1.09,0.00,23.86,28.35,30.51,5.83,29.71,1005.43,2046.76,3038.00,3029.03,3277.98,349.99,319.30,21.24,0000 0000 0000 0000 000000
2013-09-06 01:47:06,0.14,1.09,0.00,23.86,28.35,30.53,6.01,29.96,1005.44,2046.84,3038.01,3029.03,3277.99,350.83,320.24,21.24,0000 0000 0000 0000 000000
2013-09-06 01:48:07,0.05,1.09,0.00,23.86,28.35,30.50,5.89,29.96,1005.45,2046.77,3038.00,3029.01,3277.97,350.08,319.55,21.25,0000 0000 0000 0000 000000
2013-09-06 01:49:07,-0.08,1.09,0.00,23.86,28.35,30.52,5.77,29.71,1005.40,2046.76,3038.00,3029.01,3277.96,348.97,318.52,21.25,0000 0000 0000 0000 000000
2013-09-06 01:50:07,0.02,1.09,0.00,23.86,28.35,30.52,5.89,30.08,1005.39,2046.70,3038.00,3029.00,3277.91,348.95,318.23,21.26,0000 0000 0000 0000 000000
2013-09-06 01:51:07,-0.08,1.09,0.00,23.86,28.36,30.52,5.88,29.92,1005.40,2046.57,3038.00,3029.00,3277.91,349.74,319.03,21.26,0000 0000 0000 0000 000000
2013-09-06 01:52:08,-0.06,1.09,0.00,23.85,28.36,30.55,5.89,29.79,1005.39,2046.64,3038.00,3029.01,3277.93,349.96,319.44,21.27,0000 0000 0000 0000 000000
2013-09-06 01:53:08,0.05,1.09,0.00,23.84,28.37,30.55,5.94,29.71,1005.39,2046.69,3038.00,3029.01,3277.92,350.13,319.60,21.28,0000 0000 0000 0000 000000
2013-09-06 01:54:08,0.04,1.09,0.00,23.86,28.37,30.54,6.05,29.75,1005.39,2046.63,3038.00,3029.00,3277.93,350.70,320.27,21.28,0000 0000 0000 0000 000000
2013-09-06 01:55:08,-0.04,1.09,0.00,23.86,28.37,30.56,5.94,30.00,1005.39,2046.52,3037.99,3029.00,3277.85,349.84,319.30,21.29,0000 0000 0000 0000 000000
2013-09-06 01:56:08,-0.07,1.09,0.00,23.86,28.37,30.55,5.96,29.88,1005.39,2046.52,3037.99,3029.00,3277.81,349.84,319.46,21.29,0000 0000 0000 0000 000000
2013-09-06 01:57:09,0.01,1.09,0.00,23.89,28.37,30.54,5.78,29.88,1005.35,2046.52,3037.97,3029.00,3277.73,348.88,318.39,21.30,0000 0000 0000 0000 000000
2013-09-06 01:58:09,0.00,1.09,0.00,23.89,28.37,30.55,6.07,30.00,1005.29,2046.31,3037.99,3029.00,3277.66,350.55,319.90,21.31,0000 0000 0000 0000 000000
2013-09-06 01:59:09,-0.17,1.08,0.00,23.89,28.38,30.56,5.77,29.83,1005.30,2046.20,3037.99,3029.00,3277.66,349.80,319.22,21.31,0000 0000 0000 0000 000000
2013-09-06 02:00:10,-0.08,1.08,0.00,23.89,28.38,30.56,5.88,29.71,1005.33,2046.24,3037.99,3029.00,3277.71,349.42,318.68,21.32,0000 0000 0000 0000 000000
2013-09-06 02:01:10,0.01,1.08,0.00,23.91,28.39,30.55,5.92,30.00,1005.28,2046.22,3037.98,3029.00,3277.58,350.42,319.75,21.32,0000 0000 0000 0000 000000
2013-09-06 02:02:10,0.02,1.08,0.00,23.92,28.40,30.59,5.88,29.88,1005.25,2046.11,3037.97,3029.00,3277.42,350.26,319.58,21.33,0000 0000 0000 0000 000000
2013-09-06 02:03:10,-0.06,1.08,0.00,23.92,28.40,30.61,5.86,29.75,1005.26,2046.08,3037.98,3029.00,3277.39,349.92,319.28,21.33,0000 0000 0000 0000 000000
2013-09-06 02:04:10,-0.03,1.08,0.00,23.92,28.40,30.61,5.82,30.08,1005.29,2046.04,3037.92,3028.99,3277.18,348.71,318.33,21.34,0000 0000 0000 0000 000000
2013-09-06 02:05:11,0.02,1.08,0.00,23.94,28.40,30.59,5.98,29.96,1005.29,2046.03,3037.88,3028.99,3277.10,350.00,319.47,21.35,0000 0000 0000 0000 000000
2013-09-06 02:06:11,0.01,1.08,0.00,23.95,28.40,30.59,5.73,30.00,1005.30,2046.03,3037.81,3028.99,3277.07,349.33,318.72,21.35,0000 0000 0000 0000 000000
2013-09-06 02:07:11,0.02,1.08,0.00,23.99,28.40,30.60,5.88,29.83,1005.25,2046.03,3037.76,3028.98,3277.05,348.95,318.32,21.36,0000 0000 0000 0000 000000
2013-09-06 02:08:11,-0.01,1.08,0.00,24.02,28.41,30.61,5.74,29.79,1005.33,2046.02,3037.79,3028.99,3277.06,349.86,319.14,21.36,0000 0000 0000 0000 000000
2013-09-06 02:09:12,-0.02,1.08,0.00,24.04,28.42,30.59,5.84,29.88,1005.33,2046.02,3037.86,3028.98,3277.03,349.61,318.89,21.37,0000 0000 0000 0000 000000
2013-09-06 02:10:12,0.00,1.08,0.00,24.05,28.42,30.59,5.82,29.88,1005.31,2046.03,3037.92,3028.99,3277.01,350.50,319.69,21.38,0000 0000 0000 0000 000000
2013-09-06 02:11:12,0.00,1.08,0.00,24.07,28.42,30.60,5.77,29.71,1005.29,2046.03,3037.86,3028.98,3277.00,350.21,319.57,21.38,0000 0000 0000 0000 000000
2013-09-06 02:12:12,0.02,1.08,0.00,24.07,28.42,30.58,5.93,29.88,1005.31,2046.01,3037.89,3028.93,3277.02,350.47,319.64,21.39,0000 0000 0000 0000 000000
2013-09-06 02:13:12,-0.01,1.08,0.00,24.05,28.42,30.60,5.91,29.83,1005.31,2046.00,3037.78,3028.92,3277.00,350.32,319.52,21.39,0000 0000 0000 0000 000000
2013-09-06 02:14:12,0.01,1.08,0.00,24.03,28.42,30.59,5.81,29.88,1005.35,2046.01,3037.88,3028.93,3277.00,348.34,318.22,21.40,0000 0000 0000 0000 000000
2013-09-06 02:15:13,-0.01,1.08,0.00,24.01,28.42,30.60,5.80,29.63,1005.35,2046.00,3037.90,3028.84,3277.00,349.63,318.95,21.41,0000 0000 0000 0000 000000
2013-09-06 02:16:13,0.02,1.08,0.00,24.00,28.43,30.61,5.97,29.92,1005.32,2046.00,3037.91,3028.88,3277.00,350.54,319.28,21.41,0000 0000 0000 0000 000000
2013-09-06 02:17:13,0.00,1.08,0.00,24.00,28.44,30.61,5.95,29.63,1005.34,2046.00,3037.66,3028.77,3277.00,349.97,319.27,21.42,0000 0000 0000 0000 000000
2013-09-06 02:18:13,0.06,1.08,0.00,24.01,28.45,30.60,5.98,30.13,1005.34,2046.00,3037.40,3028.55,3277.00,350.72,319.72,21.42,0000 0000 0000 0000 000000
2013-09-06 02:19:14,0.08,1.08,0.00,24.01,28.45,30.60,5.92,29.83,1005.28,2046.00,3037.31,3028.47,3277.00,349.84,319.13,21.43,0000 0000 0000 0000 000000
2013-09-06 02:20:14,0.02,1.08,0.00,24.02,28.45,30.63,5.98,30.00,1005.17,2046.00,3037.51,3028.37,3277.00,349.81,319.05,21.43,0000 0000 0000 0000 000000
2013-09-06 02:21:14,0.00,1.08,0.00,24.07,28.45,30.65,5.87,30.04,1005.11,2046.00,3037.57,3028.26,3277.00,350.02,319.16,21.44,0000 0000 0000 0000 000000
2013-09-06 02:22:14,0.02,1.08,0.00,24.09,28.45,30.65,5.79,29.67,1005.12,2046.00,3037.66,3028.15,3277.00,349.06,318.26,21.45,0000 0000 0000 0000 000000
2013-09-06 02:23:15,0.01,1.08,0.00,24.11,28.46,30.65,5.98,29.79,1005.17,2046.00,3037.58,3028.11,3276.98,350.53,319.60,21.45,0000 0000 0000 0000 000000
2013-09-06 02:24:15,0.03,1.09,0.00,24.12,28.47,30.65,5.93,29.71,1005.03,2046.00,3037.50,3028.09,3276.99,350.39,319.42,21.46,0000 0000 0000 0000 000000
2013-09-06 02:25:15,0.00,1.09,0.00,24.14,28.47,30.65,5.92,29.67,1005.00,2046.00,3037.40,3028.14,3276.99,350.16,319.18,21.46,0000 0000 0000 0000 000000
2013-09-06 02:26:16,-0.00,1.09,0.00,24.14,28.47,30.66,5.92,29.75,1004.97,2046.00,3037.47,3028.18,3276.99,349.77,319.12,21.47,0000 0000 0000 0000 000000
2013-09-06 02:27:16,-0.01,1.09,0.00,24.16,28.47,30.65,5.89,30.08,1004.93,2046.00,3037.34,3028.17,3276.99,350.77,319.70,21.48,0000 0000 0000 0000 000000
2013-09-06 02:28:16,0.00,1.09,0.00,24.17,28.47,30.66,5.79,29.83,1004.96,2046.00,3037.42,3028.11,3276.98,349.53,318.83,21.48,0000 0000 0000 0000 000000
2013-09-06 02:29:16,0.01,1.09,0.00,24.17,28.47,30.67,5.96,30.08,1004.94,2046.00,3037.40,3028.07,3276.97,350.45,319.40,21.49,0000 0000 0000 0000 000000
2013-09-06 02:30:17,0.01,1.09,0.00,24.18,28.48,30.65,5.88,29.83,1004.94,2046.00,3037.21,3028.04,3276.96,348.94,318.24,21.49,0000 0000 0000 0000 000000
2013-09-06 02:31:17,0.03,1.09,0.00,24.18,28.50,30.67,6.03,29.88,1004.96,2046.00,3037.11,3028.03,3276.95,350.40,319.34,21.50,0000 0000 0000 0000 000000
2013-09-06 02:32:17,0.02,1.09,0.00,24.19,28.50,30.68,5.96,29.79,1004.94,2045.99,3037.05,3028.01,3276.88,350.08,318.76,21.50,0000 0000 0000 0000 000000
2013-09-06 02:33:17,0.02,1.09,0.00,24.20,28.50,30.69,5.90,29.75,1004.95,2045.99,3037.01,3028.00,3276.61,349.75,318.87,21.51,0000 0000 0000 0000 000000
2013-09-06 02:34:18,0.03,1.09,0.00,24.21,28.50,30.68,5.94,29.88,1004.93,2045.99,3037.00,3028.00,3276.45,350.17,319.37,21.52,0000 0000 0000 0000 000000
2013-09-06 02:35:18,0.02,1.09,0.00,24.22,28.50,30.68,5.93,29.92,1004.94,2045.99,3037.00,3028.00,3276.45,349.46,318.68,21.52,0000 0000 0000 0000 000000
2013-09-06 02:36:18,-0.01,1.09,0.00,24.23,28.50,30.69,5.98,29.71,1004.91,2045.99,3037.00,3028.01,3276.57,350.07,318.63,21.53,0000 0000 0000 0000 000000